THORAD AGENA D DEB

Satellite information

Favourite Embed

Satellite Type and Status

DEBRISIN ORBIT

Key statistics

Satellite THORAD AGENA D DEB at a glance.

Uptime

20180

Days in orbit

Revolutions

≈ 14.3

Per day

Orbit

SSO

Sun Synchronous Orbit

Inclination

99.0

Latest

Satellite identification and parameters

Extended collection of information and parameters for THORAD AGENA D DEB.

Object identification

Identified? True

Debris? True

Object name: THORAD AGENA D DEB

International designator: 1970-025CL

Object number (NORAD): 4737

Object ID (CCSDS): 4737

Country: UNITED STATES OF AMERICA (US)

Current information (Y/N): Y

RCS size: SMALL

Orbital parameters

Period: 100.757 minutes

Inclination: 99.0331 deg

SMA: 7172.612 km

Apoapsis: 814.987 km

Periapsis: 773.968 km

RAAN: 160.1762 deg

Eccentricy: 0.0028594

Argument of periapsis: 8.6477 deg

Mean anomaly: 351.5191 deg

Mean motion: 14.29179303 rev/day

Mean motion (dot): 0.00003055 rev/day2

B* drag term: 0.0012163 1/REarth

Two-line elements (TLE)

Creation date: July 8, 2025, 2:27 a.m.

Reference frame: TEME

Reference center: EARTH

Epoch: July 7, 2025, 9:37 p.m. UTC

TLE line 0: 0 THORAD AGENA D DEB

TLE line 1: 1 04737U 70025CL 25188.90109921 .00003055 00000-0 12163-2 0 9998

TLE line 2: 2 04737 99.0331 160.1762 0028594 8.6477 351.5191 14.29179303798368

Live tracking on map

Real-time ground track for satellite THORAD AGENA D DEB.

In-orbit conjunctions

A list of the most updated potential collisions computed for object THORAD AGENA D DEB.

Target Orbit TCA Probability of collision Miss distance Type
COSMOS 1867 COOLANT LEO 2024-09-26 15:24:51 0.000164149 893.0 (m) DEBRIS
FENGYUN 1C DEB SSO 2024-08-12 09:13:40 0.0001666395 36.0 (m) DEBRIS

Associated space launch

Meteorological research and development satellite

THORAD AGENA D DEB was lifted into orbit during the mission ‘Thorad SLV-2G Agena D | Nimbus 4’, on board a Thorad SLV-2G Agena D space rocket.

The launch took place on April 8, 1970, 8:17 a.m. from Space Launch Complex 2E.

For more information about the launch, click the button.

Launch to space Thorad SLV-2G Agena D | Nimbus 4
Thorad SLV-2G Agena D | Nimbus 4

Agency: N/A

Status: Launch Successful

Launch date: April 8, 1970, 8:17 a.m. UTC

Rocket: Thorad SLV-2G Agena D

Launch pad: Space Launch Complex 2E

Location: Vandenberg SFB, CA, USA

...

Latest news about this satellite

There are no fresh news available about this satellite. Check back as we update our databases every day.


Newsletter sign-up

Weekly statistics, charts and insights to help you stay on top of the space industry.